Total_Precipitation_Accumulation
1.12 0.99 0.93 1.10 1.06 1.05 1.06 1.07 1.03 0.91 0.79 0.64 0.61 0.57 0.62 0.61 0.60 0.59 0.74 0.70 0.86 1.13 1.24 1.17 1.05 0.90 0.89 0.94 1.03 1.18 1.26 1.19 1.43 1.70 1.71 1.69 1.57 1.22 0.97 0.78 0.69 0.59 0.57
1.01 1.01 0.88 0.94 1.00 1.11 1.26 1.25 1.09 1.01 0.91 0.78 0.78 0.75 0.74 0.72 0.71 0.61 0.71 0.74 0.64 0.72 0.92 1.16 1.22 1.11 1.01 0.99 1.06 1.19 1.24 1.17 1.29 1.51 1.59 1.69 1.68 1.36 1.00 0.79 0.72 0.62 0.58
0.85 0.98 0.96 0.92 0.93 1.11 1.28 1.36 1.25 1.17 0.98 0.90 0.88 0.85 0.77 0.82 0.82 0.73 0.73 0.80 0.66 0.55 0.69 0.99 1.22 1.27 1.17 1.16 1.17 1.24 1.23 1.17 1.19 1.29 1.39 1.40 1.44 1.31 1.07 0.91 0.80 0.73 0.68
0.91 1.03 1.07 0.98 0.97 1.13 1.29 1.40 1.46 1.43 1.29 1.17 1.08 0.95 0.88 0.97 0.93 0.83 0.79 0.83 0.84 0.71 0.68 0.73 0.92 1.18 1.29 1.33 1.25 1.14 1.10 1.07 1.07 1.04 1.08 1.04 1.09 1.13 1.03 0.92 0.91 0.90 0.84
0.92 1.06 1.21 1.21 1.19 1.27 1.31 1.32 1.39 1.35 1.35 1.32 1.18 1.11 1.01 1.04 1.07 0.94 0.91 0.97 0.97 0.93 0.82 0.62 0.63 0.69 1.00 1.27 1.28 1.19 1.14 1.05 0.98 0.86 0.85 0.81 0.82 0.92 0.86 0.85 0.91 0.93 0.87
1.14 1.11 1.22 1.24 1.26 1.39 1.40 1.52 1.65 1.50 1.37 1.43 1.36 1.24 1.12 1.06 1.02 1.04 1.07 1.12 1.10 1.00 0.94 0.80 0.73 0.53 0.64 0.94 1.12 1.19 1.19 1.14 1.06 0.89 0.78 0.73 0.69 0.74 0.77 0.75 0.78 0.80 0.78
1.28 1.30 1.30 1.29 1.30 1.34 1.37 1.54 1.83 1.74 1.56 1.47 1.63 1.55 1.35 1.15 1.07 1.05 1.06 1.20 1.24 1.12 1.08 1.12 0.96 0.77 0.59 0.57 0.65 0.93 1.08 1.20 1.21 1.08 0.93 0.79 0.69 0.67 0.72 0.66 0.70 0.75 0.69
1.26 1.19 1.33 1.42 1.37 1.44 1.50 1.65 1.87 1.97 1.78 1.63 1.86 2.17 1.89 1.56 1.19 1.04 1.04 1.05 1.19 1.21 1.12 1.03 0.99 0.94 0.79 0.68 0.48 0.55 0.75 0.95 1.13 1.13 1.06 0.91 0.75 0.65 0.66 0.63 0.66 0.75 0.73
1.49 1.42 1.49 1.62 1.54 1.55 1.60 1.64 1.69 2.03 2.12 1.94 1.91 2.32 2.09 1.86 1.77 1.28 0.99 0.94 1.16 1.27 1.25 1.13 1.01 1.08 1.06 0.93 0.73 0.45 0.44 0.58 0.85 1.07 1.12 1.05 0.87 0.71 0.62 0.58 0.62 0.71 0.76
1.70 1.59 1.59 1.63 1.65 1.70 1.63 1.52 1.65 1.98 2.34 2.31 2.14 1.96 1.77 1.67 1.87 1.71 1.21 0.96 1.06 1.20 1.30 1.22 1.13 1.14 1.21 1.16 1.01 0.67 0.40 0.38 0.62 0.96 1.14 1.14 1.01 0.83 0.74 0.65 0.65 0.67 0.72
1.71 1.56 1.51 1.54 1.61 1.71 1.70 1.73 1.87 2.13 2.36 2.51 2.43 2.16 1.88 1.68 1.40 1.54 1.53 1.31 1.11 1.04 1.06 1.19 1.28 1.23 1.22 1.15 1.16 0.94 0.55 0.36 0.45 0.81 1.13 1.27 1.20 1.03 0.88 0.80 0.72 0.68 0.67
1.54 1.51 1.49 1.45 1.40 1.48 1.58 1.73 1.97 2.08 2.24 2.43 2.44 2.16 1.96 1.81 1.62 1.54 1.42 1.47 1.47 1.20 1.02 1.03 1.13 1.16 1.19 1.19 1.07 1.11 0.83 0.52 0.39 0.50 0.76 1.06 1.21 1.22 1.12 1.03 0.93 0.86 0.80
1.34 1.36 1.37 1.32 1.22 1.21 1.33 1.50 1.71 1.76 1.88 2.06 2.13 2.02 1.91 1.74 1.67 1.73 1.69 1.60 1.49 1.20 1.03 0.90 0.95 1.03 1.01 1.10 1.18 1.22 0.95 0.74 0.50 0.40 0.45 0.59 0.80 1.05 1.23 1.30 1.28 1.22 1.13
1.17 1.11 1.14 1.15 1.11 1.10 1.13 1.23 1.33 1.40 1.50 1.67 1.74 1.77 1.67 1.63 1.68 1.67 1.66 1.77 1.65 1.39 1.05 0.76 0.78 0.89 0.85 0.89 1.11 1.17 0.85 0.76 0.62 0.48 0.42 0.42 0.48 0.63 0.88 1.08 1.28 1.47 1.48
0.94 0.90 0.97 1.06 1.12 1.04 0.98 1.05 1.11 1.15 1.27 1.40 1.54 1.69 1.64 1.58 1.61 1.67 1.71 1.74 1.74 1.58 1.27 0.88 0.74 0.71 0.76 0.81 1.04 0.96 0.84 0.82 0.70 0.60 0.48 0.41 0.37 0.39 0.52 0.67 0.84 1.00 1.09
0.85 0.85 0.88 0.89 0.90 0.88 0.92 1.01 1.10 1.19 1.20 1.25 1.35 1.49 1.60 1.64 1.70 1.70 1.75 1.76 1.70 1.62 1.46 1.08 0.84 0.71 0.79 0.76 0.89 0.77 0.87 1.03 0.80 0.63 0.53 0.47 0.43 0.41 0.41 0.46 0.51 0.53 0.55
0.66 0.68 0.66 0.70 0.81 0.81 0.80 0.90 0.96 0.98 1.08 1.17 1.20 1.22 1.40 1.54 1.66 1.71 1.72 1.72 1.75 1.67 1.46 1.26 0.99 0.82 0.89 0.88 0.90 0.80 0.86 0.92 0.81 0.74 0.64 0.54 0.48 0.46 0.42 0.41 0.41 0.38 0.38
0.44 0.51 0.55 0.54 0.70 0.86 0.88 0.91 0.92 0.89 0.95 1.00 1.05 1.13 1.24 1.27 1.36 1.50 1.62 1.62 1.70 1.72 1.59 1.47 1.21 1.00 0.97 0.96 1.05 1.08 1.05 1.01 0.97 1.03 0.97 0.79 0.65 0.58 0.51 0.44 0.40 0.37 0.34
0.34 0.38 0.51 0.50 0.54 0.71 0.83 0.83 0.79 0.79 0.83 0.87 0.90 0.97 1.03 1.12 1.22 1.25 1.35 1.46 1.54 1.58 1.62 1.54 1.44 1.31 1.16 1.08 1.09 1.06 1.16 1.30 1.25 1.23 1.26 1.08 0.87 0.74 0.65 0.57 0.51 0.44 0.39
0.36 0.35 0.35 0.37 0.43 0.53 0.65 0.67 0.65 0.65 0.66 0.69 0.81 0.90 0.96 1.00 1.08 1.15 1.19 1.31 1.44 1.53 1.53 1.49 1.44 1.37 1.31 1.28 1.25 1.19 1.24 1.38 1.46 1.37 1.34 1.26 1.17 1.05 0.89 0.76 0.65 0.57 0.52
0.22 0.24 0.21 0.22 0.27 0.35 0.39 0.41 0.48 0.53 0.60 0.66 0.76 0.80 0.84 0.81 0.85 0.92 0.92 1.09 1.25 1.42 1.48 1.51 1.43 1.33 1.27 1.28 1.25 1.26 1.31 1.46 1.52 1.57 1.55 1.43 1.31 1.14 1.00 0.89 0.76 0.67 0.64
0.09 0.14 0.14 0.16 0.20 0.22 0.27 0.25 0.30 0.43 0.54 0.61 0.68 0.72 0.79 0.82 0.78 0.74 0.73 0.81 0.94 1.05 1.21 1.34 1.38 1.31 1.23 1.21 1.29 1.39 1.41 1.47 1.58 1.52 1.44 1.52 1.46 1.34 1.16 0.96 0.92 0.87 0.78
0.06 0.09 0.09 0.13 0.17 0.14 0.16 0.15 0.26 0.46 0.53 0.54 0.53 0.66 0.78 0.84 0.87 0.89 0.77 0.76 0.77 0.81 0.89 1.05 1.20 1.21 1.19 1.20 1.24 1.32 1.41 1.44 1.36 1.43 1.38 1.46 1.46 1.33 1.17 1.09 1.12 0.99 0.90
0.03 0.07 0.08 0.15 0.14 0.09 0.11 0.14 0.21 0.38 0.47 0.45 0.47 0.57 0.72 0.84 0.87 0.89 0.84 0.90 0.88 0.78 0.75 0.80 0.99 1.08 1.09 1.20 1.31 1.42 1.54 1.52 1.47 1.47 1.39 1.40 1.36 1.22 1.11 1.09 1.16 1.03 0.94
0.02 0.06 0.09 0.11 0.08 0.05 0.07 0.11 0.20 0.37 0.46 0.47 0.44 0.52 0.67 0.76 0.86 0.87 0.84 0.95 0.95 0.78 0.70 0.78 0.81 0.88 0.98 1.10 1.28 1.42 1.51 1.51 1.50 1.49 1.34 1.21 1.17 1.21 1.20 1.12 1.08 1.06 0.95
0.02 0.03 0.06 0.07 0.06 0.07 0.06 0.07 0.15 0.26 0.35 0.44 0.44 0.49 0.69 0.74 0.77 0.74 0.76 0.96 1.05 0.93 0.69 0.67 0.73 0.84 0.92 1.06 1.29 1.43 1.65 1.64 1.45 1.42 1.32 1.18 1.18 1.26 1.38 1.27 1.07 0.97 0.90